weather.gov     
National Weather Service

Terminal Aerodrome Forecast
NWS Homepage
This page is being discontinued on March 12, 2014.
The same data is available at this site. Please update your bookmarks.
Thank you, and we apologize for the inconvenience.
Please send an email to SR-SRH.Webmaster@noaa.gov with any concerns.


Current Version
Previous Version:    01  02  03  04  05  06  07  08  09  10  11  12  13  14  
[Printable]
724
FTUS41 KCAR 291120
TAFBGR
TAF
KBGR 291120Z 2912/3012 00000KT P6SM SKC
     FM292100 18004KT P6SM SCT150 BKN250
     FM300400 15003KT P6SM BKN090 OVC150
     FM301100 15004KT 3SM -SN OVC025=




724
FTUS41 KCAR 291120
TAFBGR
TAF
KBGR 291120Z 2912/3012 00000KT P6SM SKC
     FM292100 18004KT P6SM SCT150 BKN250
     FM300400 15003KT P6SM BKN090 OVC150
     FM301100 15004KT 3SM -SN OVC025=


U.S. Dept. of Commerce
NOAA National Weather Service
1325 East West Highway
Silver Spring, MD 20910
E-mail: w-nws.webmaster@noaa.gov
Page last modified: May 16, 2007
NATIONAL WEATHER SERVICE: for Safety, for Work, for Fun - FOR LIFE